JBU1022 KBUR-KONT

Flight info

Callsign JBU1022
Flight time 0h 24m
Altitude 7000
Route VNY V186 ITSME V264 POM V197 PDZ
Aircraft A320/M-SDE3FGHIRWY/LB1

Departure

Time 2026-05-03 23:11
Airport Hollywood Burbank/Bob Hope Airport (KBUR)

Arrival

Time 2026-05-03 23:35
Airport Ontario International Airport (KONT)
Time Latitude Longitude Altitude Speed Heading
2026-05-03 22:38 34.19675 -118.35106 699 ft 0 kts 181°
2026-05-03 22:58 34.19679 -118.35106 699 ft 3 kts 181°
2026-05-03 22:59 34.19705 -118.35104 704 ft 4 kts 205°
2026-05-03 22:59 34.19716 -118.35088 696 ft 3 kts 269°
2026-05-03 22:59 34.19715 -118.35055 703 ft 3 kts 271°
2026-05-03 22:59 34.19715 -118.35050 698 ft 0 kts 271°
2026-05-03 23:03 34.19716 -118.35056 703 ft 2 kts 272°
2026-05-03 23:03 34.19717 -118.35085 696 ft 4 kts 273°
2026-05-03 23:04 34.19718 -118.35131 699 ft 6 kts 270°
2026-05-03 23:04 34.19718 -118.35195 706 ft 9 kts 270°
2026-05-03 23:04 34.19718 -118.35276 708 ft 11 kts 270°
2026-05-03 23:04 34.19719 -118.35376 708 ft 13 kts 272°
2026-05-03 23:05 34.19724 -118.35469 705 ft 8 kts 280°
2026-05-03 23:05 34.19783 -118.35511 713 ft 12 kts 345°
2026-05-03 23:05 34.19888 -118.35540 700 ft 19 kts 346°
2026-05-03 23:05 34.20032 -118.35579 705 ft 24 kts 346°
2026-05-03 23:06 34.20193 -118.35627 705 ft 24 kts 348°
2026-05-03 23:06 34.20334 -118.35662 703 ft 18 kts 346°
2026-05-03 23:06 34.20447 -118.35694 705 ft 10 kts 348°
2026-05-03 23:06 34.20537 -118.35717 702 ft 16 kts 348°
2026-05-03 23:07 34.20636 -118.35746 702 ft 8 kts 347°
2026-05-03 23:07 34.20677 -118.35757 705 ft 8 kts 347°
2026-05-03 23:07 34.20751 -118.35778 704 ft 14 kts 346°
2026-05-03 23:07 34.20864 -118.35810 702 ft 18 kts 348°
2026-05-03 23:08 34.20999 -118.35842 705 ft 17 kts 346°
2026-05-03 23:08 34.21096 -118.35874 702 ft 15 kts 348°
2026-05-03 23:08 34.21156 -118.35903 699 ft 8 kts 320°
2026-05-03 23:08 34.21162 -118.35912 700 ft 0 kts 308°
2026-05-03 23:09 34.21164 -118.35915 707 ft 3 kts 308°
2026-05-03 23:09 34.21187 -118.35950 727 ft 6 kts 308°
2026-05-03 23:09 34.21216 -118.35996 733 ft 8 kts 299°
2026-05-03 23:09 34.21215 -118.36035 726 ft 0 kts 245°
2026-05-03 23:10 34.21198 -118.36042 725 ft 0 kts 165°
2026-05-03 23:10 34.21118 -118.36019 729 ft 47 kts 167°
2026-05-03 23:10 34.20508 -118.35849 725 ft 129 kts 167°
2026-05-03 23:10 34.19461 -118.35580 1037 ft 164 kts 169°
2026-05-03 23:11 34.18323 -118.35460 1946 ft 166 kts 194°
2026-05-03 23:11 34.17299 -118.36132 2520 ft 179 kts 220°
2026-05-03 23:11 34.16299 -118.37202 2766 ft 205 kts 221°
2026-05-03 23:11 34.15185 -118.38424 3178 ft 227 kts 221°
2026-05-03 23:12 34.13956 -118.39759 3672 ft 248 kts 220°
2026-05-03 23:12 34.12636 -118.41187 4387 ft 259 kts 220°
2026-05-03 23:12 34.11303 -118.42715 5175 ft 270 kts 227°
2026-05-03 23:12 34.10394 -118.44701 6138 ft 274 kts 253°
2026-05-03 23:13 34.10282 -118.47013 6702 ft 281 kts 277°
2026-05-03 23:13 34.11007 -118.49181 6929 ft 282 kts 303°
2026-05-03 23:13 34.12470 -118.50766 6973 ft 288 kts 330°
2026-05-03 23:13 34.14388 -118.51419 6964 ft 291 kts 358°
2026-05-03 23:14 34.16369 -118.50977 6968 ft 293 kts 25°
2026-05-03 23:14 34.17989 -118.49529 6975 ft 291 kts 52°
2026-05-03 23:14 34.19125 -118.47522 6971 ft 290 kts 61°
2026-05-03 23:14 34.19869 -118.45294 6969 ft 284 kts 82°
2026-05-03 23:15 34.19960 -118.43731 6976 ft 280 kts 97°
2026-05-03 23:15 34.19531 -118.41468 6998 ft 277 kts 111°
2026-05-03 23:15 34.18936 -118.39262 6987 ft 276 kts 111°
2026-05-03 23:15 34.18336 -118.37056 6989 ft 276 kts 111°
2026-05-03 23:16 34.17728 -118.34822 6985 ft 277 kts 111°
2026-05-03 23:16 34.17136 -118.32642 6995 ft 277 kts 111°
2026-05-03 23:16 34.16529 -118.30404 6993 ft 277 kts 111°
2026-05-03 23:16 34.15929 -118.28195 6986 ft 277 kts 111°
2026-05-03 23:17 34.15323 -118.25987 6991 ft 277 kts 112°
2026-05-03 23:17 34.14679 -118.23800 6997 ft 277 kts 113°
2026-05-03 23:17 34.14009 -118.21624 6988 ft 277 kts 114°
2026-05-03 23:17 34.13332 -118.19446 6996 ft 277 kts 114°
2026-05-03 23:18 34.12657 -118.17270 6997 ft 277 kts 114°
2026-05-03 23:18 34.11985 -118.15094 7001 ft 277 kts 114°
2026-05-03 23:18 34.11314 -118.12916 6996 ft 277 kts 114°
2026-05-03 23:18 34.10643 -118.10731 7007 ft 278 kts 114°
2026-05-03 23:19 34.09974 -118.08546 7004 ft 277 kts 113°
2026-05-03 23:19 34.09304 -118.06369 6787 ft 277 kts 113°
2026-05-03 23:19 34.08638 -118.04198 6362 ft 274 kts 113°
2026-05-03 23:19 34.07982 -118.02063 6026 ft 269 kts 113°
2026-05-03 23:20 34.07329 -117.99939 5978 ft 271 kts 113°
2026-05-03 23:20 34.06676 -117.97802 5984 ft 271 kts 113°
2026-05-03 23:20 34.06088 -117.95643 5981 ft 273 kts 103°
2026-05-03 23:20 34.06097 -117.93343 5988 ft 278 kts 85°
2026-05-03 23:21 34.06365 -117.91036 5988 ft 278 kts 85°
2026-05-03 23:21 34.06640 -117.88731 5993 ft 278 kts 85°
2026-05-03 23:21 34.06912 -117.86433 5992 ft 276 kts 86°
2026-05-03 23:21 34.06778 -117.84166 5986 ft 269 kts 112°
2026-05-03 23:22 34.05142 -117.80149 5992 ft 267 kts 121°
2026-05-03 23:22 34.04262 -117.78187 5991 ft 265 kts 121°
2026-05-03 23:22 34.03381 -117.76229 5992 ft 266 kts 121°
2026-05-03 23:23 34.02499 -117.74263 5990 ft 267 kts 121°
2026-05-03 23:23 34.01614 -117.72292 5981 ft 268 kts 121°
2026-05-03 23:23 34.00994 -117.70170 5980 ft 272 kts 104°
2026-05-03 23:23 34.00684 -117.67914 5979 ft 274 kts 101°
2026-05-03 23:24 34.00408 -117.65646 5983 ft 274 kts 101°
2026-05-03 23:24 34.00139 -117.63380 5981 ft 273 kts 101°
2026-05-03 23:24 33.99865 -117.61115 5981 ft 273 kts 101°
2026-05-03 23:24 33.99589 -117.58850 5979 ft 273 kts 101°
2026-05-03 23:25 33.99319 -117.56586 5982 ft 272 kts 101°
2026-05-03 23:25 33.99051 -117.54335 5867 ft 270 kts 101°
2026-05-03 23:25 33.98780 -117.52101 5498 ft 269 kts 101°
2026-05-03 23:25 33.98508 -117.49873 5169 ft 268 kts 101°
2026-05-03 23:26 33.98219 -117.47652 4827 ft 268 kts 101°
2026-05-03 23:26 33.97952 -117.45433 4492 ft 268 kts 95°
2026-05-03 23:26 33.97907 -117.43182 4269 ft 269 kts 91°
2026-05-03 23:26 33.97910 -117.40919 4261 ft 272 kts 91°
2026-05-03 23:27 33.97914 -117.38635 4259 ft 273 kts 91°
2026-05-03 23:27 33.97916 -117.36349 4261 ft 273 kts 91°
2026-05-03 23:27 33.97920 -117.34059 4261 ft 274 kts 91°
2026-05-03 23:27 33.97929 -117.31770 4262 ft 273 kts 91°
2026-05-03 23:28 33.97942 -117.29483 4239 ft 272 kts 91°
2026-05-03 23:28 33.97956 -117.27201 4243 ft 273 kts 91°
2026-05-03 23:28 33.98152 -117.24926 4243 ft 275 kts 73°
2026-05-03 23:28 33.99134 -117.22964 4259 ft 277 kts 44°
2026-05-03 23:29 34.00758 -117.21771 4261 ft 275 kts 15°
2026-05-03 23:29 34.02639 -117.21654 4265 ft 273 kts 345°
2026-05-03 23:29 34.04315 -117.22629 4257 ft 268 kts 316°
2026-05-03 23:29 34.05385 -117.24424 4263 ft 265 kts 288°
2026-05-03 23:30 34.05664 -117.26590 4264 ft 262 kts 268°
2026-05-03 23:30 34.05663 -117.28766 4257 ft 254 kts 268°
2026-05-03 23:30 34.05660 -117.30879 4259 ft 243 kts 269°
2026-05-03 23:30 34.05662 -117.32859 4263 ft 230 kts 268°
2026-05-03 23:31 34.05667 -117.34742 4262 ft 220 kts 268°
2026-05-03 23:31 34.05670 -117.36532 4259 ft 207 kts 268°
2026-05-03 23:31 34.05673 -117.38230 4186 ft 200 kts 268°
2026-05-03 23:31 34.05675 -117.39898 3965 ft 198 kts 268°
2026-05-03 23:32 34.05677 -117.41559 3696 ft 199 kts 268°
2026-05-03 23:32 34.05679 -117.43230 3425 ft 199 kts 269°
2026-05-03 23:32 34.05681 -117.44879 3179 ft 192 kts 269°
2026-05-03 23:32 34.05683 -117.46431 2919 ft 180 kts 269°
2026-05-03 23:33 34.05685 -117.47892 2694 ft 168 kts 269°
2026-05-03 23:33 34.05687 -117.49225 2504 ft 149 kts 269°
2026-05-03 23:33 34.05687 -117.50448 2287 ft 142 kts 268°
2026-05-03 23:33 34.05688 -117.51633 2090 ft 141 kts 266°
2026-05-03 23:34 34.05688 -117.52798 1891 ft 138 kts 267°
2026-05-03 23:34 34.05690 -117.53955 1716 ft 137 kts 267°
2026-05-03 23:34 34.05686 -117.55114 1544 ft 138 kts 268°
2026-05-03 23:34 34.05683 -117.56271 1309 ft 137 kts 267°
2026-05-03 23:35 34.05685 -117.57433 1099 ft 139 kts 268°
2026-05-03 23:35 34.05692 -117.58588 954 ft 136 kts 267°
2026-05-03 23:35 34.05687 -117.59549 939 ft 91 kts 269°
2026-05-03 23:35 34.05689 -117.60104 942 ft 41 kts 271°
2026-05-03 23:36 34.05691 -117.60302 945 ft 17 kts 269°
2026-05-03 23:36 34.05689 -117.60455 946 ft 21 kts 270°
2026-05-03 23:36 34.05688 -117.60658 943 ft 14 kts 270°
2026-05-03 23:36 34.05711 -117.60739 942 ft 11 kts 314°
2026-05-03 23:37 34.05778 -117.60765 943 ft 11 kts 21°
2026-05-03 23:37 34.05799 -117.60685 945 ft 11 kts 89°
2026-05-03 23:37 34.05799 -117.60585 946 ft 14 kts 89°
2026-05-03 23:37 34.05800 -117.60457 945 ft 16 kts 91°
2026-05-03 23:38 34.05798 -117.60312 945 ft 18 kts 90°
2026-05-03 23:38 34.05799 -117.60151 944 ft 20 kts 89°
2026-05-03 23:38 34.05801 -117.60035 942 ft 9 kts 87°
2026-05-03 23:38 34.05856 -117.59989 940 ft 11 kts
2026-05-03 23:39 34.05898 -117.59964 940 ft 8 kts 78°
2026-05-03 23:39 34.05898 -117.59879 939 ft 12 kts 89°
2026-05-03 23:39 34.05899 -117.59766 939 ft 14 kts 90°
2026-05-03 23:39 34.05898 -117.59639 939 ft 16 kts 90°
2026-05-03 23:40 34.05898 -117.59540 937 ft 11 kts 89°
2026-05-03 23:40 34.05904 -117.59477 937 ft 6 kts 60°
2026-05-03 23:40 34.05933 -117.59486 938 ft 4 kts 318°
2026-05-03 23:40 34.05952 -117.59493 940 ft 2 kts
2026-05-03 23:41 34.05966 -117.59487 939 ft 2 kts 17°
2026-05-03 23:41 34.05977 -117.59483 939 ft 1 kts 17°
2026-05-03 23:41 34.05986 -117.59480 939 ft 1 kts 17°
2026-05-03 23:41 34.05994 -117.59476 940 ft 1 kts 17°
2026-05-03 23:42 34.05995 -117.59476 940 ft 0 kts 17°